Location: Kermapucano
(48.0667°N, 3.3000°W)
Time: 20:10:59
(UTC+00:00)

CZ-4B R/B - Pass Details

Date: 29 November 2020
Orbit: 485 x 653 km, 97.9° (Epoch: 25 January)

Event Time Altitude Azimuth Distance (km) Brightness Sun altitude
Rises 05:08:36 0° 18° (NNE) 2,990 6.7 -24.6°
Reaches altitude 10° 05:10:55 10° 24° (NNE) 2,070 5.9 -24.2°
Maximum altitude 05:15:20 48° 99° (E) 842 4.1 -23.4°
Drops below altitude 10° 05:19:35 10° 174° (S) 2,008 5.8 -22.7°
Sets 05:21:48 0° 180° (S) 2,890 6.6 -22.4°
